Location: ????????
(38.4362°N, 22.8767°E)
Time: 14:44:18
(UTC+00:00)

Cosmos 1092 Rocket - Pass Details

Date: 23 April 2024
Orbit: 955 x 993 km, 83.0° (Epoch: 18 May)

Event Time Altitude Azimuth Distance (km) Brightness Sun altitude
Exits shadow 00:58:03 62° 289° (WNW) 1,073 4.0 -27.9°
Drops below altitude 10° 01:03:57 10° 360° (N) 2,701 6.9 -27.1°
Sets 01:06:31 0° 4° (N) 3,655 7.7 -26.7°
